Time,TemperatureF,DewpointF,PressureIn,WindDirection,WindDirectionDegrees,WindSpeedMPH,WindSpeedGustMPH,Humidity,HourlyPrecipIn,Conditions,Clouds,dailyrainin,SoftwareType,DateUTC
2013-07-18 00:02:00,61.0,58.0,30.01,East,90,3.0,12.0,89,0.00,,,1.21,,2013-07-18 05:02:00,
2013-07-18 00:11:00,61.0,58.0,30.01,East,90,3.0,12.0,89,0.00,,,1.21,,2013-07-18 05:11:00,
2013-07-18 00:22:00,61.0,58.0,30.00,ENE,69,4.0,10.0,89,0.00,,,1.20,,2013-07-18 05:22:00,
2013-07-18 00:32:00,61.0,58.0,30.00,ENE,69,4.0,10.0,89,0.00,,,1.20,,2013-07-18 05:32:00,
2013-07-18 00:42:00,61.0,58.0,30.00,ENE,69,4.0,10.0,89,0.00,,,1.20,,2013-07-18 05:42:00,
2013-07-18 00:52:00,61.0,57.0,30.00,East,97,5.0,12.0,88,0.00,,,1.20,,2013-07-18 05:52:00,
2013-07-18 01:01:00,61.0,57.0,30.00,East,97,5.0,12.0,88,0.00,,,1.20,,2013-07-18 06:01:00,
2013-07-18 01:12:00,61.0,57.0,30.00,East,97,5.0,12.0,88,0.00,,,1.20,,2013-07-18 06:12:00,
2013-07-18 01:22:00,61.0,57.0,29.99,ENE,57,5.0,12.0,87,0.00,,,1.19,,2013-07-18 06:22:00,
2013-07-18 01:32:00,61.0,57.0,29.99,ENE,57,5.0,12.0,87,0.00,,,1.19,,2013-07-18 06:32:00,
2013-07-18 01:43:00,61.0,57.0,29.99,ENE,57,5.0,12.0,87,0.00,,,1.19,,2013-07-18 06:43:00,
2013-07-18 01:52:00,61.0,57.0,29.99,ENE,59,1.0,10.0,88,0.00,,,1.19,,2013-07-18 06:52:00,
2013-07-18 02:01:00,61.0,57.0,29.99,ENE,59,1.0,10.0,88,0.00,,,1.19,,2013-07-18 07:01:00,
2013-07-18 02:11:00,61.0,57.0,29.99,ENE,59,1.0,10.0,88,0.00,,,1.19,,2013-07-18 07:11:00,
2013-07-18 02:22:00,61.0,57.0,29.98,ENE,69,2.0,10.0,87,0.00,,,1.18,,2013-07-18 07:22:00,
2013-07-18 02:32:00,61.0,57.0,29.98,ENE,69,2.0,10.0,87,0.00,,,1.18,,2013-07-18 07:32:00,
2013-07-18 02:42:00,61.0,57.0,29.98,ENE,69,2.0,10.0,87,0.00,,,1.18,,2013-07-18 07:42:00,
2013-07-18 02:52:00,61.0,57.0,29.98,ENE,69,2.0,10.0,87,0.00,,,1.18,,2013-07-18 07:52:00,
2013-07-18 03:01:00,61.0,57.0,29.98,ENE,69,2.0,10.0,87,0.00,,,1.18,,2013-07-18 08:01:00,
2013-07-18 03:21:00,61.0,57.0,29.96,SE,144,1.0,10.0,87,0.00,,,1.14,,2013-07-18 08:21:00,
2013-07-18 03:32:00,61.0,57.0,29.96,SE,144,1.0,10.0,87,0.00,,,1.14,,2013-07-18 08:32:00,
2013-07-18 03:42:00,61.0,57.0,29.96,SE,144,1.0,10.0,87,0.00,,,1.14,,2013-07-18 08:42:00,
2013-07-18 03:52:00,61.0,57.0,29.96,ENE,69,5.0,13.0,87,0.00,,,1.08,,2013-07-18 08:52:00,
2013-07-18 04:01:00,61.0,57.0,29.96,ENE,69,5.0,13.0,87,0.00,,,1.08,,2013-07-18 09:01:00,
2013-07-18 04:11:00,61.0,57.0,29.96,ENE,69,5.0,13.0,87,0.00,,,1.08,,2013-07-18 09:11:00,
2013-07-18 04:21:00,61.0,58.0,29.96,NE,54,5.0,16.0,89,0.00,,,0.97,,2013-07-18 09:21:00,
2013-07-18 04:32:00,61.0,58.0,29.96,NE,54,5.0,16.0,89,0.00,,,0.97,,2013-07-18 09:32:00,
2013-07-18 04:42:00,61.0,58.0,29.96,NE,54,5.0,16.0,89,0.00,,,0.97,,2013-07-18 09:42:00,
2013-07-18 04:51:00,61.0,58.0,29.95,ENE,68,5.0,12.0,90,0.00,,,0.90,,2013-07-18 09:51:00,
2013-07-18 05:01:00,61.0,58.0,29.95,ENE,68,5.0,12.0,90,0.00,,,0.90,,2013-07-18 10:01:00,
2013-07-18 05:11:00,61.0,58.0,29.95,ENE,68,5.0,12.0,90,0.00,,,0.90,,2013-07-18 10:11:00,
2013-07-18 05:21:00,61.0,58.0,29.95,ESE,120,3.0,10.0,90,0.00,,,0.86,,2013-07-18 10:21:00,
2013-07-18 05:32:00,61.0,58.0,29.95,ESE,120,3.0,10.0,90,0.00,,,0.86,,2013-07-18 10:32:00,
2013-07-18 05:43:00,61.0,58.0,29.95,ESE,120,3.0,10.0,90,0.00,,,0.86,,2013-07-18 10:43:00,
2013-07-18 05:52:00,60.0,57.0,29.96,NE,55,4.0,8.0,90,0.00,,,0.85,,2013-07-18 10:52:00,
2013-07-18 06:01:00,60.0,57.0,29.96,NE,55,4.0,8.0,90,0.00,,,0.85,,2013-07-18 11:01:00,
2013-07-18 06:11:00,60.0,57.0,29.96,NE,55,4.0,8.0,90,0.00,,,0.85,,2013-07-18 11:11:00,
2013-07-18 06:22:00,60.0,57.0,29.96,NE,56,1.0,12.0,91,0.00,,,0.85,,2013-07-18 11:22:00,
2013-07-18 06:32:00,60.0,57.0,29.96,NE,56,1.0,12.0,91,0.00,,,0.85,,2013-07-18 11:32:00,
2013-07-18 06:43:00,60.0,57.0,29.96,NE,56,1.0,12.0,91,0.00,,,0.85,,2013-07-18 11:43:00,
2013-07-18 06:52:00,60.0,58.0,29.95,NE,48,3.0,9.0,92,0.00,,,0.85,,2013-07-18 11:52:00,
2013-07-18 07:01:00,60.0,58.0,29.95,NE,48,3.0,9.0,92,0.00,,,0.85,,2013-07-18 12:01:00,
2013-07-18 07:11:00,60.0,58.0,29.95,NE,48,3.0,9.0,92,0.00,,,0.85,,2013-07-18 12:11:00,
2013-07-18 07:22:00,60.0,58.0,29.96,ENE,66,3.0,16.0,93,0.03,,,0.86,,2013-07-18 12:22:00,
2013-07-18 07:32:00,60.0,58.0,29.96,ENE,66,3.0,16.0,93,0.03,,,0.86,,2013-07-18 12:32:00,
2013-07-18 07:42:00,60.0,58.0,29.96,ENE,66,3.0,16.0,93,0.03,,,0.86,,2013-07-18 12:42:00,
2013-07-18 07:52:00,60.0,58.0,29.96,ENE,71,6.0,15.0,93,0.04,,,0.83,,2013-07-18 12:52:00,
2013-07-18 08:01:00,60.0,58.0,29.96,ENE,71,6.0,15.0,93,0.04,,,0.83,,2013-07-18 13:01:00,
2013-07-18 08:11:00,60.0,58.0,29.96,ENE,71,6.0,15.0,93,0.04,,,0.83,,2013-07-18 13:11:00,
2013-07-18 08:22:00,60.0,58.0,29.97,East,89,5.0,12.0,93,0.02,,,0.80,,2013-07-18 13:22:00,
2013-07-18 08:32:00,60.0,58.0,29.97,East,89,5.0,12.0,93,0.02,,,0.80,,2013-07-18 13:32:00,
2013-07-18 08:43:00,60.0,58.0,29.97,East,89,5.0,12.0,93,0.02,,,0.80,,2013-07-18 13:43:00,
2013-07-18 08:53:00,60.0,58.0,29.97,ESE,114,3.0,15.0,93,0.01,,,0.79,,2013-07-18 13:53:00,
2013-07-18 09:02:00,60.0,58.0,29.97,ESE,114,3.0,15.0,93,0.01,,,0.79,,2013-07-18 14:02:00,
2013-07-18 09:11:00,60.0,58.0,29.97,ESE,114,3.0,15.0,93,0.01,,,0.79,,2013-07-18 14:11:00,
2013-07-18 09:22:00,61.0,59.0,29.97,ENE,66,3.0,12.0,94,0.01,,,0.76,,2013-07-18 14:22:00,
2013-07-18 09:32:00,61.0,59.0,29.97,ENE,66,3.0,12.0,94,0.01,,,0.76,,2013-07-18 14:32:00,
2013-07-18 09:43:00,61.0,59.0,29.97,ENE,66,3.0,12.0,94,0.01,,,0.76,,2013-07-18 14:43:00,
2013-07-18 09:53:00,61.0,59.0,29.98,East,89,6.0,12.0,93,0.00,,,0.76,,2013-07-18 14:53:00,
2013-07-18 10:01:00,61.0,59.0,29.98,East,89,6.0,12.0,93,0.00,,,0.76,,2013-07-18 15:01:00,
2013-07-18 10:11:00,61.0,59.0,29.98,East,89,6.0,12.0,93,0.00,,,0.76,,2013-07-18 15:11:00,
2013-07-18 10:22:00,61.0,59.0,29.98,East,93,6.0,12.0,92,0.00,,,0.73,,2013-07-18 15:22:00,
2013-07-18 10:32:00,61.0,59.0,29.98,East,93,6.0,12.0,92,0.00,,,0.73,,2013-07-18 15:32:00,
2013-07-18 10:43:00,61.0,59.0,29.98,East,93,6.0,12.0,92,0.00,,,0.73,,2013-07-18 15:43:00,
2013-07-18 10:53:00,62.0,60.0,29.98,East,82,5.0,17.0,92,0.00,,,0.68,,2013-07-18 15:53:00,
2013-07-18 11:01:00,62.0,60.0,29.98,East,82,5.0,17.0,92,0.00,,,0.68,,2013-07-18 16:01:00,
2013-07-18 11:11:00,62.0,60.0,29.98,East,82,5.0,17.0,92,0.00,,,0.68,,2013-07-18 16:11:00,
2013-07-18 11:22:00,63.0,60.0,29.96,ENE,75,3.0,17.0,90,0.00,,,0.67,,2013-07-18 16:22:00,
2013-07-18 11:32:00,63.0,60.0,29.96,ENE,75,3.0,17.0,90,0.00,,,0.67,,2013-07-18 16:32:00,
2013-07-18 11:42:00,63.0,60.0,29.96,ENE,75,3.0,17.0,90,0.00,,,0.67,,2013-07-18 16:42:00,
2013-07-18 11:52:00,62.0,59.0,29.98,ESE,120,4.0,13.0,91,0.01,,,0.67,,2013-07-18 16:52:00,
2013-07-18 12:02:00,62.0,59.0,29.98,ESE,120,4.0,13.0,91,0.01,,,0.67,,2013-07-18 17:02:00,
2013-07-18 12:11:00,62.0,59.0,29.98,ESE,120,4.0,13.0,91,0.01,,,0.67,,2013-07-18 17:11:00,
2013-07-18 12:22:00,62.0,60.0,29.98,ESE,123,2.0,12.0,92,0.02,,,0.66,,2013-07-18 17:22:00,
2013-07-18 12:33:00,62.0,60.0,29.98,ESE,123,2.0,12.0,92,0.02,,,0.66,,2013-07-18 17:33:00,
2013-07-18 12:43:00,62.0,60.0,29.98,ESE,123,2.0,12.0,92,0.02,,,0.66,,2013-07-18 17:43:00,
2013-07-18 12:52:00,62.0,59.0,29.98,ESE,116,3.0,10.0,91,0.05,,,0.69,,2013-07-18 17:52:00,
2013-07-18 13:01:00,62.0,59.0,29.98,ESE,116,3.0,10.0,91,0.05,,,0.69,,2013-07-18 18:01:00,
2013-07-18 13:11:00,62.0,59.0,29.98,ESE,116,3.0,10.0,91,0.05,,,0.69,,2013-07-18 18:11:00,
2013-07-18 13:22:00,62.0,59.0,29.97,ESE,110,6.0,13.0,91,0.05,,,0.70,,2013-07-18 18:22:00,
2013-07-18 13:32:00,62.0,59.0,29.97,ESE,110,6.0,13.0,91,0.05,,,0.70,,2013-07-18 18:32:00,
2013-07-18 13:43:00,62.0,59.0,29.97,ESE,110,6.0,13.0,91,0.05,,,0.70,,2013-07-18 18:43:00,
2013-07-18 13:52:00,62.0,58.0,29.97,ENE,73,4.0,12.0,88,0.01,,,0.67,,2013-07-18 18:52:00,
2013-07-18 14:01:00,62.0,58.0,29.97,ENE,73,4.0,12.0,88,0.01,,,0.67,,2013-07-18 19:01:00,
2013-07-18 14:11:00,62.0,58.0,29.97,ENE,73,4.0,12.0,88,0.01,,,0.67,,2013-07-18 19:11:00,
2013-07-18 14:22:00,62.0,58.0,29.96,East,80,5.0,14.0,88,0.00,,,0.59,,2013-07-18 19:22:00,
2013-07-18 14:32:00,62.0,58.0,29.96,East,80,5.0,14.0,88,0.00,,,0.59,,2013-07-18 19:32:00,
2013-07-18 14:43:00,62.0,58.0,29.96,East,80,5.0,14.0,88,0.00,,,0.59,,2013-07-18 19:43:00,
2013-07-18 14:53:00,63.0,59.0,29.94,ENE,72,5.0,12.0,86,0.00,,,0.59,,2013-07-18 19:53:00,
2013-07-18 15:01:00,63.0,59.0,29.94,ENE,72,5.0,12.0,86,0.00,,,0.59,,2013-07-18 20:01:00,
2013-07-18 15:11:00,63.0,59.0,29.94,ENE,72,5.0,12.0,86,0.00,,,0.59,,2013-07-18 20:11:00,
2013-07-18 15:22:00,64.0,58.0,29.94,NE,42,5.0,12.0,82,0.00,,,0.58,,2013-07-18 20:22:00,
2013-07-18 15:32:00,64.0,58.0,29.94,NE,42,5.0,12.0,82,0.00,,,0.58,,2013-07-18 20:32:00,
2013-07-18 15:43:00,64.0,58.0,29.94,NE,42,5.0,12.0,82,0.00,,,0.58,,2013-07-18 20:43:00,
2013-07-18 15:52:00,65.0,59.0,29.92,NE,45,2.0,13.0,80,0.00,,,0.45,,2013-07-18 20:52:00,
2013-07-18 16:01:00,65.0,59.0,29.92,NE,45,2.0,13.0,80,0.00,,,0.45,,2013-07-18 21:01:00,
2013-07-18 16:11:00,65.0,59.0,29.92,NE,45,2.0,13.0,80,0.00,,,0.45,,2013-07-18 21:11:00,
2013-07-18 16:22:00,66.0,59.0,29.91,NE,56,2.0,9.0,78,0.00,,,0.39,,2013-07-18 21:22:00,
2013-07-18 16:32:00,66.0,59.0,29.91,NE,56,2.0,9.0,78,0.00,,,0.39,,2013-07-18 21:32:00,
2013-07-18 16:43:00,66.0,59.0,29.91,NE,56,2.0,9.0,78,0.00,,,0.39,,2013-07-18 21:43:00,
2013-07-18 16:52:00,66.0,59.0,29.91,ENE,73,3.0,8.0,77,0.00,,,0.30,,2013-07-18 21:52:00,
2013-07-18 17:01:00,66.0,59.0,29.91,ENE,73,3.0,8.0,77,0.00,,,0.30,,2013-07-18 22:01:00,
2013-07-18 17:11:00,66.0,59.0,29.91,ENE,73,3.0,8.0,77,0.00,,,0.30,,2013-07-18 22:11:00,
2013-07-18 17:22:00,66.0,58.0,29.91,SE,146,2.0,8.0,76,0.00,,,0.28,,2013-07-18 22:22:00,
2013-07-18 17:32:00,66.0,58.0,29.91,SE,146,2.0,8.0,76,0.00,,,0.28,,2013-07-18 22:32:00,
2013-07-18 17:43:00,66.0,58.0,29.91,SE,146,2.0,8.0,76,0.00,,,0.28,,2013-07-18 22:43:00,
2013-07-18 17:53:00,67.0,59.0,29.89,East,81,1.0,12.0,75,0.00,,,0.26,,2013-07-18 22:53:00,
2013-07-18 18:02:00,67.0,59.0,29.89,East,81,1.0,12.0,75,0.00,,,0.26,,2013-07-18 23:02:00,
2013-07-18 18:11:00,67.0,59.0,29.89,East,81,1.0,12.0,75,0.00,,,0.26,,2013-07-18 23:11:00,
2013-07-18 18:22:00,66.0,58.0,29.89,ENE,71,1.0,9.0,76,0.00,,,0.12,,2013-07-18 23:22:00,
2013-07-18 18:32:00,66.0,58.0,29.89,ENE,71,1.0,9.0,76,0.00,,,0.12,,2013-07-18 23:32:00,
2013-07-18 18:42:00,66.0,58.0,29.89,ENE,71,1.0,9.0,76,0.00,,,0.12,,2013-07-18 23:42:00,
2013-07-18 18:52:00,66.0,58.0,29.88,ENE,64,2.0,12.0,75,0.00,,,0.12,,2013-07-18 23:52:00,
2013-07-18 19:01:00,66.0,58.0,29.88,ENE,64,2.0,12.0,75,0.00,,,0.12,,2013-07-19 00:01:00,
2013-07-18 19:11:00,66.0,58.0,29.88,ENE,64,2.0,12.0,75,0.00,,,0.12,,2013-07-19 00:11:00,
2013-07-18 19:22:00,66.0,57.0,29.88,ENE,68,3.0,10.0,74,0.00,,,0.12,,2013-07-19 00:22:00,
2013-07-18 19:32:00,66.0,57.0,29.88,ENE,68,3.0,10.0,74,0.00,,,0.12,,2013-07-19 00:32:00,
2013-07-18 19:43:00,66.0,57.0,29.88,ENE,68,3.0,10.0,74,0.00,,,0.12,,2013-07-19 00:43:00,
2013-07-18 19:52:00,65.0,56.0,29.89,ESE,114,3.0,10.0,74,0.00,,,0.12,,2013-07-19 00:52:00,
2013-07-18 20:01:00,65.0,56.0,29.89,ESE,114,3.0,10.0,74,0.00,,,0.12,,2013-07-19 01:01:00,
2013-07-18 20:11:00,65.0,56.0,29.89,ESE,114,3.0,10.0,74,0.00,,,0.12,,2013-07-19 01:11:00,
2013-07-18 20:22:00,65.0,58.0,29.90,ENE,68,2.0,8.0,77,0.00,,,0.12,,2013-07-19 01:22:00,
2013-07-18 20:32:00,65.0,58.0,29.90,ENE,68,2.0,8.0,77,0.00,,,0.12,,2013-07-19 01:32:00,
2013-07-18 20:42:00,65.0,58.0,29.90,ENE,68,2.0,8.0,77,0.00,,,0.12,,2013-07-19 01:42:00,
2013-07-18 20:52:00,64.0,58.0,29.90,East,82,3.0,7.0,80,0.00,,,0.12,,2013-07-19 01:52:00,
2013-07-18 21:01:00,64.0,58.0,29.90,East,82,3.0,7.0,80,0.00,,,0.12,,2013-07-19 02:01:00,
2013-07-18 21:11:00,64.0,58.0,29.90,East,82,3.0,7.0,80,0.00,,,0.12,,2013-07-19 02:11:00,
2013-07-18 21:22:00,63.0,58.0,29.90,ENE,78,5.0,10.0,83,0.00,,,0.12,,2013-07-19 02:22:00,
2013-07-18 21:32:00,63.0,58.0,29.90,ENE,78,5.0,10.0,83,0.00,,,0.12,,2013-07-19 02:32:00,
2013-07-18 21:43:00,63.0,58.0,29.90,ENE,78,5.0,10.0,83,0.00,,,0.12,,2013-07-19 02:43:00,
2013-07-18 21:52:00,63.0,59.0,29.90,ESE,109,5.0,12.0,86,0.00,,,0.12,,2013-07-19 02:52:00,
2013-07-18 22:01:00,63.0,59.0,29.90,ESE,109,5.0,12.0,86,0.00,,,0.12,,2013-07-19 03:01:00,
2013-07-18 22:11:00,63.0,59.0,29.90,ESE,109,5.0,12.0,86,0.00,,,0.12,,2013-07-19 03:11:00,
2013-07-18 22:22:00,63.0,58.0,29.90,ENE,75,5.0,12.0,85,0.00,,,0.12,,2013-07-19 03:22:00,
2013-07-18 22:32:00,63.0,58.0,29.90,ENE,75,5.0,12.0,85,0.00,,,0.12,,2013-07-19 03:32:00,
2013-07-18 22:43:00,63.0,58.0,29.90,ENE,75,5.0,12.0,85,0.00,,,0.12,,2013-07-19 03:43:00,
2013-07-18 22:52:00,63.0,58.0,29.90,East,99,2.0,13.0,85,0.00,,,0.12,,2013-07-19 03:52:00,
2013-07-18 23:02:00,63.0,58.0,29.90,East,99,2.0,13.0,85,0.00,,,0.12,,2013-07-19 04:02:00,
2013-07-18 23:12:00,63.0,58.0,29.90,East,99,2.0,13.0,85,0.00,,,0.12,,2013-07-19 04:12:00,
2013-07-18 23:22:00,62.0,58.0,29.91,NE,38,3.0,12.0,86,0.00,,,0.12,,2013-07-19 04:22:00,
2013-07-18 23:33:00,62.0,58.0,29.91,NE,38,3.0,12.0,86,0.00,,,0.12,,2013-07-19 04:33:00,
2013-07-18 23:44:00,62.0,58.0,29.91,NE,38,3.0,12.0,86,0.00,,,0.12,,2013-07-19 04:44:00,
2013-07-18 23:52:00,62.0,58.0,29.91,NE,52,1.0,7.0,87,0.00,,,0.12,,2013-07-19 04:52:00,